Hourly Weather Lubango

Today, 29 September, Tuesday

Time Temperature Precipitation Wind Pressure Humidity
00:00 +14°C° 0 mm 1 mps 608 mmHg 60%
01:00 +14°C° 0 mm 1 mps 608 mmHg 56%
02:00 +14°C° 0 mm 1 mps 607 mmHg 53%
03:00 +14°C° 0 mm 1 mps 607 mmHg 50%
04:00 +14°C° 0 mm 1 mps 607 mmHg 46%
05:00 +16°C° 0 mm 1 mps 608 mmHg 41%
06:00 +18°C° 0 mm 1 mps 609 mmHg 36%
07:00 +20°C° 0 mm 2 mps 611 mmHg 30%
08:00 +24°C° 0 mm 2 mps 612 mmHg 25%
09:00 +26°C° 0 mm 3 mps 612 mmHg 19%
10:00 +29°C° 0 mm 3 mps 613 mmHg 14%
11:00 +30°C° 0 mm 3 mps 613 mmHg 13%
12:00 +33°C° 0 mm 3 mps 612 mmHg 12%
13:00 +34°C° 0 mm 3 mps 612 mmHg 12%
14:00 +33°C° 0 mm 3 mps 611 mmHg 14%
15:00 +32°C° 0 mm 4 mps 611 mmHg 16%
16:00 +30°C° 0 mm 4 mps 610 mmHg 18%
17:00 +26°C° 0 mm 3 mps 609 mmHg 31%
18:00 +21°C° 0 mm 3 mps 608 mmHg 44%
19:00 +17°C° 0 mm 2 mps 607 mmHg 57%
20:00 +16°C° 0 mm 1 mps 607 mmHg 59%
21:00 +15°C° 0 mm 1 mps 608 mmHg 61%
22:00 +14°C° 0 mm 1 mps 608 mmHg 63%
23:00 +14°C° 0 mm 1 mps 607 mmHg 59%

Tomorrow, 30 September, Wednesday

Time Temperature Precipitation Wind Pressure Humidity
00:00 +14°C° 0 mm 1 mps 607 mmHg 56%
01:00 +14°C° 0 mm 1 mps 607 mmHg 52%
02:00 +14°C° 0 mm 1 mps 607 mmHg 47%
03:00 +14°C° 0 mm 1 mps 607 mmHg 43%
04:00 +14°C° 0 mm 1 mps 606 mmHg 38%
05:00 +15°C° 0 mm 1 mps 607 mmHg 34%
06:00 +18°C° 0 mm 1 mps 608 mmHg 30%
07:00 +19°C° 0 mm 1 mps 609 mmHg 25%
08:00 +21°C° 0 mm 2 mps 610 mmHg 22%
09:00 +26°C° 0 mm 2 mps 611 mmHg 18%
10:00 +29°C° 0 mm 3 mps 612 mmHg 15%
11:00 +30°C° 0 mm 2 mps 612 mmHg 14%
12:00 +31°C° 0 mm 2 mps 612 mmHg 13%
13:00 +32°C° 0 mm 2 mps 611 mmHg 13%
14:00 +31°C° 0 mm 3 mps 610 mmHg 16%
15:00 +29°C° 0 mm 4 mps 609 mmHg 19%
16:00 +28°C° 0 mm 5 mps 609 mmHg 22%
17:00 +23°C° 0 mm 4 mps 608 mmHg 36%
18:00 +19°C° 0 mm 3 mps 607 mmHg 51%
19:00 +15°C° 0 mm 2 mps 606 mmHg 66%
20:00 +14°C° 0 mm 1 mps 606 mmHg 69%
21:00 +13°C° 0 mm 1 mps 607 mmHg 72%
22:00 +12°C° 0 mm 1 mps 607 mmHg 75%
23:00 +12°C° 0 mm 1 mps 607 mmHg 74%

Day after tomorrow, 1 October, Thursday

Time Temperature Precipitation Wind Pressure Humidity
00:00 +12°C° 0 mm 1 mps 606 mmHg 73%
01:00 +12°C° 0 mm 1 mps 606 mmHg 72%
02:00 +12°C° 0 mm 1 mps 606 mmHg 67%
03:00 +12°C° 0 mm 1 mps 606 mmHg 63%
04:00 +12°C° 0 mm 1 mps 605 mmHg 59%
05:00 +14°C° 0 mm 1 mps 606 mmHg 52%
06:00 +15°C° 0 mm 1 mps 608 mmHg 44%
07:00 +18°C° 0 mm 1 mps 609 mmHg 36%
08:00 +21°C° 0 mm 1 mps 610 mmHg 30%
09:00 +25°C° 0 mm 1 mps 611 mmHg 23%
10:00 +28°C° 0 mm 2 mps 612 mmHg 17%
11:00 +29°C° 0 mm 2 mps 611 mmHg 17%
12:00 +30°C° 0 mm 3 mps 611 mmHg 16%
13:00 +31°C° 0 mm 3 mps 610 mmHg 16%
14:00 +30°C° 0 mm 4 mps 610 mmHg 18%
15:00 +29°C° 0 mm 4 mps 609 mmHg 19%
16:00 +28°C° 0 mm 5 mps 608 mmHg 21%
17:00 +23°C° 0 mm 4 mps 608 mmHg 33%
18:00 +19°C° 0 mm 3 mps 607 mmHg 45%
19:00 +16°C° 0 mm 2 mps 606 mmHg 56%
20:00 +15°C° 0 mm 2 mps 606 mmHg 60%
21:00 +14°C° 0 mm 1 mps 607 mmHg 63%
22:00 +13°C° 0 mm 1 mps 607 mmHg 67%
23:00 +13°C° 0 mm 1 mps 607 mmHg 67%

2 October, Friday

Time Temperature Precipitation Wind Pressure Humidity
00:00 +13°C° 0 mm 1 mps 607 mmHg 68%
01:00 +13°C° 0 mm 1 mps 606 mmHg 68%
02:00 +12°C° 0 mm 1 mps 606 mmHg 68%
03:00 +12°C° 0 mm 1 mps 606 mmHg 67%
04:00 +12°C° 0 mm 1 mps 606 mmHg 67%
05:00 +13°C° 0 mm 0 mps 607 mmHg 57%
06:00 +15°C° 0 mm 0 mps 608 mmHg 47%
07:00 +17°C° 0 mm 0 mps 609 mmHg 36%
08:00 +22°C° 0 mm 1 mps 610 mmHg 29%
09:00 +25°C° 0 mm 1 mps 612 mmHg 23%
10:00 +29°C° 0 mm 2 mps 613 mmHg 16%
11:00 +30°C° 0 mm 2 mps 612 mmHg 15%
12:00 +31°C° 0 mm 3 mps 612 mmHg 15%
13:00 +33°C° 0 mm 3 mps 612 mmHg 14%
14:00 +32°C° 0 mm 4 mps 611 mmHg 16%
15:00 +29°C° 0 mm 4 mps 610 mmHg 18%
16:00 +28°C° 0 mm 5 mps 609 mmHg 20%
17:00 +25°C° 0 mm 4 mps 609 mmHg 31%
18:00 +20°C° 0 mm 3 mps 608 mmHg 42%
19:00 +16°C° 0 mm 2 mps 607 mmHg 53%
20:00 +15°C° 0 mm 1 mps 607 mmHg 56%
21:00 +14°C° 0 mm 1 mps 608 mmHg 60%
22:00 +14°C° 0 mm 1 mps 608 mmHg 63%
23:00 +13°C° 0 mm 1 mps 608 mmHg 61%

3 October, Saturday

Time Temperature Precipitation Wind Pressure Humidity
00:00 +13°C° 0 mm 1 mps 607 mmHg 60%
01:00 +13°C° 0 mm 1 mps 607 mmHg 58%
02:00 +13°C° 0 mm 1 mps 607 mmHg 53%
03:00 +14°C° 0 mm 1 mps 607 mmHg 47%
04:00 +14°C° 0 mm 1 mps 607 mmHg 41%
05:00 +15°C° 0 mm 1 mps 608 mmHg 34%
06:00 +18°C° 0 mm 1 mps 609 mmHg 27%
07:00 +20°C° 0 mm 1 mps 610 mmHg 19%
08:00 +23°C° 0 mm 1 mps 611 mmHg 17%
09:00 +26°C° 0 mm 2 mps 612 mmHg 14%
10:00 +30°C° 0 mm 2 mps 613 mmHg 12%
11:00 +31°C° 0 mm 2 mps 613 mmHg 11%
12:00 +32°C° 0 mm 2 mps 612 mmHg 11%
13:00 +34°C° 0 mm 3 mps 612 mmHg 10%
14:00 +33°C° 0 mm 3 mps 611 mmHg 11%
15:00 +32°C° 0 mm 4 mps 611 mmHg 12%
16:00 +30°C° 0 mm 4 mps 610 mmHg 13%
17:00 +26°C° 0 mm 4 mps 609 mmHg 21%
18:00 +21°C° 0 mm 3 mps 608 mmHg 30%
19:00 +17°C° 0 mm 2 mps 607 mmHg 38%
20:00 +17°C° 0 mm 2 mps 608 mmHg 38%
21:00 +16°C° 0 mm 2 mps 608 mmHg 37%
22:00 +16°C° 0 mm 1 mps 608 mmHg 37%
23:00 +16°C° 0 mm 1 mps 608 mmHg 35%

4 October, Sunday

Time Temperature Precipitation Wind Pressure Humidity
00:00 +16°C° 0 mm 2 mps 608 mmHg 33%
01:00 +16°C° 0 mm 2 mps 608 mmHg 32%
02:00 +16°C° 0 mm 2 mps 608 mmHg 30%
03:00 +16°C° 0 mm 1 mps 607 mmHg 28%
04:00 +16°C° 0 mm 1 mps 607 mmHg 26%
05:00 +18°C° 0 mm 1 mps 608 mmHg 24%
06:00 +19°C° 0 mm 1 mps 609 mmHg 22%
07:00 +20°C° 0 mm 1 mps 610 mmHg 19%
08:00 +24°C° 0 mm 2 mps 611 mmHg 16%
09:00 +27°C° 0 mm 3 mps 612 mmHg 13%
10:00 +32°C° 0 mm 4 mps 613 mmHg 9%
11:00 +33°C° 0 mm 4 mps 613 mmHg 9%
12:00 +34°C° 0 mm 3 mps 612 mmHg 8%
13:00 +35°C° 0 mm 3 mps 612 mmHg 7%
14:00 +34°C° 0 mm 3 mps 611 mmHg 9%
15:00 +33°C° 0 mm 3 mps 611 mmHg 11%
16:00 +32°C° 0 mm 4 mps 610 mmHg 13%
17:00 +27°C° 0 mm 3 mps 609 mmHg 24%
18:00 +21°C° 0 mm 2 mps 608 mmHg 35%
19:00 +18°C° 0 mm 1 mps 607 mmHg 46%
20:00 +16°C° 0 mm 1 mps 608 mmHg 46%
21:00 +16°C° 0 mm 1 mps 608 mmHg 47%
22:00 +15°C° 0 mm 1 mps 608 mmHg 47%
23:00 +15°C° 0 mm 1 mps 608 mmHg 46%
Show more